User: anonymous   Login
Location: Newark
(13.8625°N, 100.5144°E)
Time: 20:36:42
(UTC+00:00)
Language:

DUCHIFAT 1 - Orbit

View from above orbital plane
View from above orbital plane
View from above satellite
View from above satellite

Ground track
Ground track

The orbit data is extracted from the following two-line orbital elements,

1 40021U 14033M   21204.36287382  .00000571  00000-0  63019-4 0  9992
2 40021  97.9734 144.9399 0014057  50.1549 310.0903 14.91391753385632
Epoch (UTC): 23 July 2021 08:42:32
Eccentricity: 0.0014057
inclination: 97.9734°
perigee height: 584 km
apogee height: 603 km
right ascension of ascending node: 144.9399°
argument of perigee: 50.1549°
revolutions per day: 14.91391753
mean anomaly at epoch: 310.0903°
orbit number at epoch: 38563

The dashed part of the orbit path shows where the satellite is in the earth's shadow,  

DLR